小惑星2008 ED69

2008 ED69

English version
Home page
Total 6,336 html files since Dec. 4, 1995
Updated on August 10, 2008

---------------------------------------------------------------------

・ プロフィール

発見日 2008年3月11日
発見光度 19.7等
発見者 Catalina Sky Survey

・ 軌道要素

The following orbital elements are taken from MPO140740

Epoch 2008 May 14.0 TT = JDT 2454600.5                  MPC
M 348.87741              (2000.0)            P               Q
n   0.20111776     Peri.  172.69141     +0.80666028     +0.51109474
a   2.8851547      Node   149.89693     -0.56777273     +0.80958602
e   0.7496695      Incl.   36.27968     -0.16411373     -0.28870857
P   4.90           H   17.0           G   0.15           U   4
From 102 observations 2008 Mar. 11-June 7, mean residual 0".40.

・ 光度変化

        H = 17.0  G = 0.15

---------------------------------------------------------------------

軌道要素はMPCのEphemerides and Orbital Elementsに掲載されたものです。
光度グラフはComet for Windowsで作成したものです。

---------------------------------------------------------------------

Copyright(C) 1995-2008 Seiichi Yoshida (comet@aerith.net). All rights reserved.